This demonstration page uses our WeatherBlox Daily Observations layout. Learn more.

Left ArrowRight Arrow

39.92423, -83.80882

Hourly Observations for February 9, 2022

Temp ( °F °C ) Dew Point ( °F °C ) Humidity (%) Winds ( mph kmh ) Pressure ( in mb ) Visibility ( mi km ) Precip ( " mm )
12:56 am 00:56 Clear 39 3.9 28 -2.2 65 65 SSW 10 17 29.93 1014 10 16 0.00 0.00
1:56 am 01:56 Clear 39 3.9 28 -2.2 65 65 SSW 15 24 29.90 1013 10 16 0.00 0.00
2:56 am 02:56 Clear 39 3.9 28 -2.2 65 65 SSW 15 24 29.88 1012 10 16 0.00 0.00
3:56 am 03:56 Clear 38 3.3 27 -2.8 65 65 SSW 13 20 29.87 1012 10 16 0.00 0.00
4:56 am 04:56 Clear 38 3.3 27 -2.8 65 65 SSW 12 19 29.87 1011 10 16 0.00 0.00
5:56 am 05:56 Clear 38 3.3 27 -2.8 65 65 SSW 13 20 29.85 1011 10 16 0.00 0.00
6:56 am 06:56 Clear 38 3.3 28 -2.2 68 68 SSW 13 20 29.86 1011 10 16 0.00 0.00
7:56 am 07:56 Sunny 38 3.3 28 -2.2 68 68 SSW 13 20 29.86 1011 10 16 0.00 0.00
8:56 am 08:56 Cloudy 38 3.3 29 -1.7 70 70 SSW 10 17 29.85 1011 10 16 0.00 0.00
9:27 am 09:27 Cloudy 39 4 28 -2 65 65 SW 12 19 29.88 1012 10 16 0.00 0.00
9:56 am 09:56 Sunny 40 4.4 29 -1.7 65 65 SW 14 22 29.85 1011 10 16 0.00 0.00
10:56 am 10:56 Sunny 41 5 29 -1.7 62 62 SSW 17 28 29.84 1010 10 16 0.00 0.00
11:56 am 11:56 Sunny 42 5.6 30 -1.1 62 62 SW 10 17 29.83 1010 10 16 0.00 0.00
12:56 pm 12:56 Sunny 44 6.7 30 -1.1 58 58 SSW 16 26 29.80 1009 10 16 0.00 0.00
1:56 pm 13:56 Sunny 45 7.2 30 -1.1 56 56 SSW 10 17 29.78 1009 10 16 0.00 0.00
2:56 pm 14:56 Sunny 45 7.2 30 -1.1 56 56 SW 13 20 29.77 1008 10 16 0.00 0.00
3:56 pm 15:56 Sunny 45 7.2 31 -0.6 58 58 SSW 10 17 29.78 1009 10 16 0.00 0.00
4:56 pm 16:56 Sunny 45 7.2 31 -0.6 58 58 SW 8 13 29.79 1009 10 16 0.00 0.00
5:56 pm 17:56 Mostly Cloudy 42 5.6 31 -0.6 65 65 WSW 9 15 29.80 1009 10 16 0.00 0.00
6:56 pm 18:56 Mostly Cloudy 41 5 31 -0.6 67 67 SW 8 13 29.82 1010 10 16 0.00 0.00
7:56 pm 19:56 Mostly Cloudy 41 5 30 -1.1 65 65 W 14 22 29.85 1011 10 16 0.00 0.00
8:56 pm 20:56 Cloudy 39 3.9 33 0.6 79 79 W 16 26 29.87 1011 10 16 0.00 0.00
9:56 pm 21:56 Cloudy 38 3.3 33 0.6 83 83 W 18 30 29.88 1012 10 16 0.00 0.00
10:56 pm 22:56 Cloudy 37 2.8 33 0.6 86 86 WSW 14 22 29.89 1012 10 16 0.00 0.00
11:56 pm 23:56 Cloudy 36 2.2 33 0.6 89 89 WSW 15 24 29.88 1012 10 16 0.00 0.00

Powered by AerisWeather